Location: Goudex
(43.3760°N, 0.9543°E)
Time: 23:52:29
(UTC+00:00)

Cosmos 1802 Rocket - Pass Details

Date: 20 November 2019
Orbit: 953 x 1012 km, 82.9° (Epoch: 14 December)

Event Time Altitude Azimuth Distance (km) Brightness Sun altitude
Rises 04:31:37 0° 178° (S) 3,731 7.1 -25.9°
Reaches altitude 10° 04:34:09 10° 176° (S) 2,785 6.4 -25.4°
Maximum altitude 04:40:31 71° 94° (E) 1,065 4.3 -24.3°
Drops below altitude 10° 04:46:54 10° 12° (NNE) 2,786 6.4 -23.1°
Sets 04:49:26 0° 11° (N) 3,733 7.1 -22.7°
